Regional Weather Roundup
Issued by NWS

Home | Current Version | Previous Version | Text Only | Print | Product List | Glossary On
Versions: 1 2 3 4 5 6 7 8 9 10 11 12 13 14 15 16 17 18 19 20 21 22 23 24 25 26 27 28 29 30 31 32 33 34 35 36 37 38 39 40 41 42 43 44 45 46 47 48 49 50
000
ASUS44 KBMX 260710
RWRAL

ALABAMA REGIONAL WEATHER ROUNDUP
NATIONAL WEATHER SERVICE BIRMINGHAM AL
200 AM CDT SUN APR 26 2015

NOTE: "FAIR" INDICATES FEW OR NO CLOUDS BELOW 12,000 FEET
WITH NO SIGNIFICANT WEATHER AND/OR OBSTRUCTIONS TO VISIBILITY.

THE REMARK "TC" DENOTES TEMPERATURE IN DEGREES CELSIUS.

ALZ001>011-014-016>018-020-260800-
NORTH ALABAMA

CITY           SKY/WX    TMP DP  RH WIND       PRES   REMARKS
MUSCLE SHOALS  CLEAR     69  65  86 W9        29.62F
HUNTSVILLE     CLEAR     69  66  90 SW7       29.61F
DECATUR        CLEAR     68  66  93 SW7       29.62F
HALEYVILLE       N/A     66  66 100 CALM      29.67F
GADSDEN        CLEAR    N/A N/A N/A SW7       29.62S
$$

ALZ012-013-022-023-030>036-040>044-260800-
WEST CENTRAL ALABAMA

CITY           SKY/WX    TMP DP  RH WIND       PRES   REMARKS
TUSCALOOSA     CLEAR     63  62  97 CALM      29.67F
$$

ALZ015-024>027-033>036-040>044-260800-
CENTRAL ALABAMA

CITY           SKY/WX    TMP DP  RH WIND       PRES   REMARKS
BIRMINGHAM     CLEAR     66  64  93 SW6       29.68F
MONTGOMERY     CLEAR     64  62  93 CALM      29.70F
SHELBY CO ARPT CLEAR     64  62  93 SW3       29.68S
MAXWELL AFB    CLEAR     63  62  98 S3        29.69F
GREENVILLE     FAIR      64  62  93 SW6       29.71F
$$

ALZ019-021-028-029-037-038-045>048-260800-
EAST CENTRAL ALABAMA

CITY           SKY/WX    TMP DP  RH WIND       PRES   REMARKS
ANNISTON       CLEAR     64  62  93 W7        29.66F
ALEXANDER CITY CLEAR     62  58  86 SW3       29.69F
AUBURN         NOT AVBL
$$

ALZ051>064-260800-
SOUTHWEST ALABAMA

CITY           SKY/WX    TMP DP  RH WIND       PRES   REMARKS
MOBILE         PTCLDY    66  64  93 SW5       29.75F
BROOKLEY FIELD CLEAR     64  63  96 CALM      29.76F
EVERGREEN      CLEAR     65  63  93 SW5       29.74S
$$

ALZ049-050-065>069-260800-
SOUTHEAST ALABAMA

CITY           SKY/WX    TMP DP  RH WIND       PRES   REMARKS
DOTHAN         CLEAR     66  64  93 SW8       29.76F
OZARK          CLEAR     65  61  87 SW7       29.73S
TROY           CLEAR     64  63  96 SW5       29.72F
EUFAULA        FAIR      64  62  93 SW3       29.70S
$$


USA.gov is the U.S. government's official web portal to all federal, state and local government web resources and services.